STARLINK-3821, 52357

Orbit data source: Space-Track

STARLINK-3821, 52357 is a payload satellite owned by SpaceX/Seattle (US) in LEO that was launched on Fri, 29 Apr 2022 UTC via an FALCON 9 launch vehicle from the Air Force Eastern Test Range (AFETR). Payload-class satellites include a variety of spacecraft equipped with specific instruments for various scientific and technological missions. These include communications satellites like Starlink; space stations such as the ISS; scientific satellites like the Hubble; Earth observation satellites from companies like Planet Labs, Umbra, and HawkEye 360; GPS; miniature CubeSats for education and research; and military/defense satellites.

Loading next visibility...
Identifier
52357, 2022-045AC
Orbit
LEO
Country
Flag of USUS
Related business
Manufacturer
SpaceX/Seattle
Mission
Operational Commercial Communications
Bus & Motor
STARLINK, Unknown motor
Mass
297 kg wet, ~275 kg dry
Launch date (UTC)
2022-04-29 (4 years ago)
Launch vehicle
FALCON 9
Launch site
Air Force Eastern Test Range (AFETR)
Object type
Payload
Rocket body
Debris
Shape & HBR
Box + 1 Pan, 10.1 m
Radar Cross Section
11.087 m², Large (>1 m²)

Expand to show TLE details & history
Last TLE update: 2 days ago

TLE from 2 days ago
0 STARLINK-3821
1 52357U 22045AC  26170.95623374 -.00000185  00000-0  65067-5 0  9994
2 52357  53.1614  99.9178 0001539  93.5224 266.5944 15.08836656231224
Epoch: 2026-06-19T22:56Z
TLE epoch observation values (Epoch: 2026-06-19T22:56:58.595Z)
Latitude
0.00004°
Longitude
-152.50409°
Altitude
540.709 km
Speed
7.593 km/s
True Right ascension
06h 39m 40s
True Declination
0° 00' 00"
Sunlit
Object was in daylight at epoch
Visualization orbit readout
Latitude
Unknown
Longitude
Unknown
Altitude
Unknown
Speed
Unknown
Apparent Right ascension
Unknown
Apparent Declination
Unknown
Sunlit
N/A
Visualization observer readout
Local Sidereal Time
21:47:52
Azimuth
Unknown
Elevation
Unknown
Doppler factor
Unknown
Orbital elements
Apogee altitude
541.072 km
Perigee altitude
538.943 km
Semi-major axis
6,918.145 km
Eccentricity
0.00015
Inclination
53.1614°
RAAN
99.9178°
Arg. of periapsis
93.5224°
True anomaly
266.5768°
Mean anomaly
266.5944°
Eccentric anomaly
266.5856°
Mean motion
3.77189 °/min
Orbital period
95.44 mins
BSTAR
0.0000065067
Loading maneuver chart data...
Computing Atmospheric mass density...
Loading historical data...
Loading historical data...
Loading historical data...
Loading historical data...
Loading historical data...
Loading historical data...
Loading historical data...

Documentation

Showing up to 5 results
|